map of DNK home
DNK - Airport
Location
City:  Dnepropetrovsk, Dnipropetrovsk, Ukraine
Name:Dnepropetrovsk International Airport
ICAO:UKDD
IATA:DNK

Details
Type:Airport (Aerodrome, Airfield)
Use:International (customs port of entry)
Latitude:4821'26"N (48.357222)
Longitude:3506'02"E (35.100556)
Datum:WGS 1984
Elevation:481 ft (147 m)
Variation:7.96E (WMM2015 magnetic declination)
0.11 annual change
Runways:1
Longest:9320 × 144 ft (2841 × 44 m), paved

Time
Time Zone:UTC+2 (DST+3)
Local Time:

Weather
METAR:UKDD 162230Z 00000MPS 6000 NSC M05/M07 Q1011 R08/710570 NOSIG
TAF:UKDD 161705Z 1618/1718 VRB01MPS 2100 BR BKN007 TXM03/1712Z TNM09/1702Z
TEMPO 1620/1623 0300 FZFG VV002
BECMG 1623/1701 0200 FZFG VV001
BECMG 1706/1708 19005G10MPS 9999 BKN010

Related Locations
Nearby:
Farthest:CHT: 10902 mi / 17545 km
Waitangi [Tuuta], CIT, NZ

Find:

   beyond  
but within

Other Information
Maps:
NOTAMs:
Links:
Sources:

  
  • flag of Ukraine
  • flag of Dnipropetrovsk
  

Sectional Chart

Flight Planning
at skyvector.com

Satellite Image

Google Maps Satellite view

 

Copyright © 2004-2019 Karl L. Swartz. All rights reserved.
The Great Circle Mapper name and logo are trademarks of the Great Circle Mapper.
All other trademarks mentioned herein belong to their respective owners.
Please see credits for attibutions and further copyright information.

  Follow gcmap on Facebook Follow gcmap on Twitter Follow gcmap on Google+ GCmap on LinkedIn

hCard Microformat

Geo Microformat